[[{"header":{"parameterUnit":"m.s-1","parameterCategory":1,"la1":30.2991,"la2":30.254,"lo1":-89.0895,"lo2":-89.0444,"dy":0.0017,"dx":0.0017,"nx":28,"ny":28,"refTime":"2024-03-26T09:00:00:Z","depth":0,"parameterNumber":2,"parameterNumberName":"U-component_of_WINDS"},"data":[0,0,0,0,0,0,0,0,0,0,0,0,0,0,0,0,0,0,0,0,0,0,0,0,0,0,0,0,0,0,0,0,0,0,0,0,0,0,0,0,0,0,0,0,0,0,0,0,0,0,0,0,0,0,0,0,0,0,3.9485,3.9481,0,3.9113,3.9109,3.9104,3.8884,3.8883,3.8882,3.8881,3.8478,3.8469,3.8459,0,0,0,0,0,0,0,0,0,0,0,0,0,3.9974,3.9967,3.9486,3.9481,3.9476,3.9114,3.9108,3.9103,3.8884,3.8883,3.8882,3.8881,3.8482,3.847,3.8458,0,0,0,0,0,0,0,0,0,0,0,0,0,3.9698,3.9964,3.9486,3.9324,3.9306,3.9115,3.9108,3.9102,3.8884,3.8883,3.8882,3.8881,3.8485,3.8471,3.8456,3.8392,0,0,3.8411,3.8405,0,0,0,0,0,0,0,0,3.9714,3.968,3.9352,3.9335,3.9314,3.9044,3.9133,3.8863,3.8885,3.9044,3.8881,3.888,3.8666,3.8636,3.8569,3.8373,3.8356,3.841,3.8401,3.8394,3.839,0,0,0,0,0,0,0,3.9733,3.9695,3.9337,3.9348,3.9324,3.9258,3.9218,3.9081,3.8866,3.903,3.9013,3.8973,3.8655,3.8584,3.8558,3.835,3.841,3.8397,3.8388,3.8382,3.8059,3.806,0,0,0,0,0,0,3.9782,3.9712,3.9349,3.9326,3.9515,3.9251,3.9205,3.9132,3.8867,3.8826,3.8975,3.8964,3.861,3.8575,3.8543,3.8438,3.8394,3.8381,3.8372,3.8059,3.806,3.806,0,0,0,0,0,0,3.9794,3.9752,3.9364,3.9514,3.946,3.9244,3.9163,3.9125,3.9054,3.8826,3.8784,3.8943,3.8607,3.8564,3.8428,3.8421,3.8374,3.836,3.8059,3.8059,3.806,3.8236,0,0,0,0,0,0,3.9809,3.9758,3.974,3.9516,3.9453,3.9267,3.9163,3.9119,3.9031,3.9014,3.8785,3.8746,3.8603,3.8451,3.8413,3.84,3.8349,3.8058,3.8059,3.806,3.823,3.8243,3.8254,0,0,0,0,0,3.9827,3.9804,3.9741,3.9698,3.9428,3.9268,3.9231,3.9073,3.9032,3.9006,3.8856,3.8753,3.8428,3.8439,3.8395,3.8377,3.8058,3.8059,3.8059,3.8225,3.824,3.8253,0,0,0,0,0,0,4.0029,3.9772,3.9699,3.9605,3.946,3.9231,3.9195,3.9097,3.8956,3.8945,3.8747,3.8697,3.8577,3.8462,3.848,3.8289,3.823,3.8222,3.8371,3.8384,3.8395,3.8424,3.8336,0,0,0,0,0,4.0064,3.9964,3.9741,3.9678,3.9609,3.9415,3.9339,3.9229,3.9068,3.9004,3.8846,3.8686,3.8544,3.8458,3.8318,3.821,3.8148,3.8174,3.8186,3.8197,3.8191,3.8109,3.8113,3.8062,3.8062,3.8062,0,0,4.0133,3.9979,3.9928,3.9714,3.959,3.9479,3.9365,3.9257,3.9169,3.8985,3.8848,3.8723,3.853,3.8405,3.8342,3.8305,3.819,3.8197,3.8208,3.8196,3.811,3.8115,3.8119,3.8063,3.8063,3.8063,0,0,4.0201,4.0081,4.0009,3.9884,3.9697,3.9565,3.9547,3.9329,3.9241,3.91,3.8955,3.884,3.8609,3.8472,3.8373,3.837,3.8264,3.8329,3.8391,3.8313,3.8316,3.8319,3.8307,3.8307,3.8324,3.8325,3.8325,0,4.0309,4.0148,3.9983,3.988,3.9783,3.9614,3.9531,3.9415,3.9189,3.912,3.9084,3.8777,3.8636,3.8469,3.8467,3.8395,3.8357,3.8356,3.8331,3.8331,3.8331,3.8317,3.8314,3.8333,3.8332,3.8331,3.8331,0,4.0282,4.017,4.0133,3.9922,3.982,3.9729,3.9538,3.9452,3.9345,3.9213,3.906,3.8882,3.8696,3.8648,3.8544,3.8459,3.8441,3.8371,3.8306,3.8347,3.833,3.8324,3.8346,3.8342,3.834,3.8338,0,0,4.0478,4.0168,4.0157,4.0052,3.9825,3.9729,3.962,3.9443,3.9367,3.9211,3.9106,3.8905,3.8833,3.8719,3.8595,3.8528,3.852,3.8461,3.8453,3.8471,3.84,3.8453,3.8451,3.8448,3.8446,3.8445,3.8413,0,4.0508,4.0318,4.0159,4.0021,3.9906,3.9734,3.9636,3.9479,3.9348,3.922,3.907,3.8927,3.885,3.8777,3.8702,3.8539,3.8502,3.8538,3.8336,3.8331,3.8389,3.8444,3.8502,3.8482,3.8406,3.8405,3.8405,0,4.0522,4.0375,4.0228,3.9999,3.9944,3.9863,3.9677,3.9563,3.9372,3.9279,3.9146,3.9014,3.8874,3.8821,3.8618,3.8646,3.855,3.8454,3.8449,3.8422,3.837,3.8411,3.8473,3.8468,3.8394,3.8395,3.8396,0,4.0669,4.0433,4.0311,4.0228,3.9961,3.9903,3.9787,3.9596,3.9494,3.9327,3.9255,3.9073,3.8972,3.8826,3.8641,3.8623,3.8451,3.8387,3.8358,3.8363,3.8332,3.8336,3.8373,3.8278,3.8278,3.8278,3.8278,0,4.0719,4.0633,4.0372,4.0298,4.0189,3.9999,3.9893,3.976,3.9588,3.9472,3.9309,3.9201,3.8966,3.8824,3.8677,3.8522,3.8479,3.8389,3.8351,3.8403,3.8413,3.8337,3.8332,3.8277,3.8277,3.8277,3.8278,0,4.0867,4.0691,4.0545,4.0301,4.0236,4.0166,3.995,3.9861,3.9716,3.957,3.9523,3.9292,3.9115,3.8916,3.8672,3.8571,3.8423,3.837,3.8491,3.8468,3.8448,3.845,3.8435,3.8417,3.8341,3.8342,3.8343,0,4.091,4.084,4.0587,4.0501,4.039,4.0255,4.0148,3.9951,3.9844,3.9612,3.9548,3.936,3.92,3.8921,3.8722,3.8529,3.8466,3.8472,3.8436,3.8484,3.8455,3.846,3.8445,3.8484,3.8486,3.8488,3.8489,0,4.1001,4.0914,4.0774,4.0597,4.0475,4.0325,4.0167,4.0102,3.9869,3.9754,3.9575,3.945,3.9197,3.9006,3.8786,3.8649,3.8524,3.8501,3.8482,3.8534,3.8604,3.8556,3.8515,3.8503,3.8502,3.8501,3.85,3.8499,4.1092,4.1016,4.0824,4.0667,4.0526,4.0379,4.0281,4.012,3.997,3.9756,3.9643,3.9461,3.925,3.8943,3.8808,3.8651,3.8612,3.8589,3.8581,3.8577,3.8587,3.8631,3.8611,3.861,3.8609,3.8609,3.8608,0,4.1168,4.1033,4.0891,4.0675,4.0546,4.0446,4.026,4.0156,4.0001,3.982,3.9664,3.9446,3.9255,3.9037,3.8829,3.8743,3.8679,3.8694,3.8697,3.8664,3.8639,3.8673,3.8749,3.8749,3.8749,3.8749,3.8749,3.8749,4.1193,4.1056,4.0944,4.0727,4.0588,4.0416,4.0316,4.0172,4.0026,3.9794,3.9637,3.9498,3.9295,3.9067,3.8881,3.882,3.8746,3.8777,3.8698,3.8679,3.8668,3.8657,3.8687,3.8765,3.8765,3.8734,3.8734,3.8734]},{"header":{"parameterUnit":"m.s-1","parameterCategory":1,"la1":30.2991,"la2":30.254,"lo1":-89.0895,"lo2":-89.0444,"dy":0.0017,"dx":0.0017,"nx":28,"ny":28,"refTime":"2024-03-26T09:00:00:Z","depth":0,"parameterNumber":3,"parameterNumberName":"V-component_of_WINDS"},"data":[0,0,0,0,0,0,0,0,0,0,0,0,0,0,0,0,0,0,0,0,0,0,0,0,0,0,0,0,0,0,0,0,0,0,0,0,0,0,0,0,0,0,0,0,0,0,0,0,0,0,0,0,0,0,0,0,0,0,-1.9968,-1.9951,0,-1.829,-1.8271,-1.8252,-1.77,-1.7707,-1.7714,-1.7721,-1.5941,-1.5888,-1.5834,0,0,0,0,0,0,0,0,0,0,0,0,0,-2.2632,-2.2586,-1.9971,-1.9949,-1.9928,-1.8294,-1.827,-1.8247,-1.7698,-1.7707,-1.7716,-1.7725,-1.5959,-1.5895,-1.583,0,0,0,0,0,0,0,0,0,0,0,0,0,-2.1266,-2.2571,-1.9974,-1.9459,-1.9396,-1.8298,-1.8269,-1.8241,-1.7696,-1.7708,-1.7719,-1.7729,-1.598,-1.5901,-1.5821,-1.5094,0,0,-1.5571,-1.5536,0,0,0,0,0,0,0,0,-2.1344,-2.1168,-1.9555,-1.9492,-1.942,-1.8217,-1.8555,-1.7184,-1.7693,-1.834,-1.7722,-1.7735,-1.6685,-1.6546,-1.6205,-1.5011,-1.4934,-1.5564,-1.5515,-1.548,-1.5457,0,0,0,0,0,0,0,-2.1439,-2.1237,-1.9303,-1.9532,-1.9449,-1.9288,-1.9107,-1.8293,-1.7468,-1.8284,-1.8241,-1.8053,-1.665,-1.6285,-1.6159,-1.4908,-1.5567,-1.5494,-1.5444,-1.5412,-1.3007,-1.2993,0,0,0,0,0,0,-2.163,-2.132,-1.9357,-1.9253,-2.0431,-1.9232,-1.9029,-1.8591,-1.7476,-1.7318,-1.8045,-1.8033,-1.6419,-1.6255,-1.6094,-1.5154,-1.5481,-1.5404,-1.5357,-1.3022,-1.3004,-1.2988,0,0,0,0,0,0,-2.1689,-2.146,-1.9424,-2.0274,-2.0003,-1.9175,-1.8687,-1.8552,-1.8187,-1.7296,-1.714,-1.7828,-1.6421,-1.6209,-1.5346,-1.5086,-1.5367,-1.5293,-1.304,-1.3017,-1.2996,-1.3283,0,0,0,0,0,0,-2.1768,-2.1485,-2.1218,-2.0273,-1.996,-1.8727,-1.8672,-1.8511,-1.8055,-1.8024,-1.7051,-1.69,-1.6413,-1.5471,-1.5265,-1.4979,-1.523,-1.3059,-1.303,-1.3003,-1.3293,-1.3274,-1.3257,0,0,0,0,0,-2.1865,-2.1357,-2.1208,-2.0974,-1.9613,-1.8714,-1.8531,-1.8,-1.8038,-1.7748,-1.7173,-1.6931,-1.5152,-1.5387,-1.5151,-1.4837,-1.3073,-1.3038,-1.3005,-1.3301,-1.3277,-1.3257,0,0,0,0,0,0,-2.2274,-2.1224,-2.1047,-2.0223,-1.9564,-1.8623,-1.8245,-1.7995,-1.7296,-1.7293,-1.6644,-1.6427,-1.5609,-1.5135,-1.5418,-1.4062,-1.4097,-1.4015,-1.4403,-1.4373,-1.4356,-1.448,-1.5162,0,0,0,0,0,-2.2274,-2.1653,-2.0759,-2.0116,-1.9796,-1.908,-1.8667,-1.8316,-1.7598,-1.7311,-1.6672,-1.5968,-1.5245,-1.4784,-1.4073,-1.3224,-1.299,-1.2888,-1.2871,-1.2861,-1.2792,-1.2286,-1.2225,-1.2877,-1.2877,-1.2878,0,0,-2.2255,-2.1604,-2.1249,-2.0182,-1.963,-1.8977,-1.8847,-1.8167,-1.7668,-1.7199,-1.6348,-1.5855,-1.5021,-1.4161,-1.3747,-1.3739,-1.2561,-1.2818,-1.2817,-1.275,-1.2245,-1.2184,-1.213,-1.2854,-1.2858,-1.2862,0,0,-2.1888,-2.1344,-2.0741,-2.0193,-1.9364,-1.8888,-1.8745,-1.7837,-1.7496,-1.6636,-1.6266,-1.5652,-1.4432,-1.3849,-1.3393,-1.2795,-1.2536,-1.2579,-1.2479,-1.1994,-1.1943,-1.1893,-1.1662,-1.1589,-1.2517,-1.2517,-1.2518,0,-2.1964,-2.0991,-2.0458,-1.9794,-1.9324,-1.8889,-1.8257,-1.7744,-1.6718,-1.6393,-1.6405,-1.4854,-1.4263,-1.3249,-1.3104,-1.2755,-1.2549,-1.2683,-1.1998,-1.1943,-1.1888,-1.1659,-1.1576,-1.2527,-1.2526,-1.2525,-1.2524,0,-2.1115,-2.0443,-2.0052,-1.9091,-1.8576,-1.7934,-1.728,-1.6819,-1.651,-1.6027,-1.514,-1.4418,-1.3546,-1.328,-1.2965,-1.2212,-1.2232,-1.2131,-1.2148,-1.1845,-1.1617,-1.1527,-1.2541,-1.2538,-1.2535,-1.2532,0,0,-2.0959,-1.9711,-1.9574,-1.9125,-1.8175,-1.7631,-1.6957,-1.6122,-1.573,-1.5034,-1.4435,-1.3409,-1.3305,-1.2788,-1.2401,-1.1978,-1.1526,-1.192,-1.189,-1.1859,-1.0628,-1.0704,-1.0613,-1.1355,-1.1337,-1.1322,-1.0692,0,-2.0458,-1.9261,-1.8755,-1.7777,-1.7135,-1.6706,-1.6113,-1.5454,-1.4981,-1.4348,-1.3815,-1.3093,-1.3021,-1.2702,-1.2266,-1.1678,-1.1268,-1.1716,-1.0766,-1.074,-1.098,-1.0496,-1.0574,-1.0017,-1.0602,-1.0587,-1.0576,0,-1.9716,-1.9032,-1.7998,-1.7112,-1.6822,-1.6304,-1.5487,-1.4898,-1.4129,-1.3811,-1.3235,-1.2868,-1.2116,-1.2196,-1.1138,-1.1454,-1.1033,-1.0684,-1.0648,-1.0527,-1.0633,-1.0347,-0.9828,-0.974,-1.0434,-1.0445,-1.0456,0,-1.9687,-1.8504,-1.7728,-1.7358,-1.631,-1.5952,-1.5494,-1.474,-1.4264,-1.3543,-1.3223,-1.2421,-1.1976,-1.1351,-1.0767,-1.0882,-0.9756,-0.9791,-0.945,-0.9464,-0.9222,-0.9243,-0.8615,-0.8979,-0.8981,-0.8983,-0.8984,0,-1.9173,-1.8552,-1.77,-1.7222,-1.6503,-1.5918,-1.5216,-1.4724,-1.4054,-1.3452,-1.3027,-1.2467,-1.174,-1.1078,-1.0615,-0.9797,-0.9602,-0.9307,-0.9188,-0.9337,-0.9373,-0.9043,-0.906,-0.8959,-0.8964,-0.8969,-0.8973,0,-1.9017,-1.8425,-1.7547,-1.6629,-1.6382,-1.5892,-1.5092,-1.4596,-1.4106,-1.3348,-1.3134,-1.2352,-1.1551,-1.0913,-0.9862,-0.9549,-0.8684,-0.8559,-0.8951,-0.8885,-0.8575,-0.8608,-0.77,-0.7541,-0.8033,-0.8029,-0.8026,0,-1.8724,-1.8237,-1.7269,-1.6846,-1.6398,-1.572,-1.5235,-1.4632,-1.4139,-1.3222,-1.2831,-1.2005,-1.1311,-1.0047,-0.9369,-0.8557,-0.8398,-0.8136,-0.8272,-0.8432,-0.8372,-0.8404,-0.8341,-0.8118,-0.8116,-0.8114,-0.8113,0,-1.8258,-1.7987,-1.7318,-1.6538,-1.5977,-1.5329,-1.467,-1.4341,-1.3612,-1.3076,-1.2263,-1.1727,-1.0658,-0.9832,-0.895,-0.8449,-0.8147,-0.8078,-0.7951,-0.8091,-0.8332,-0.8179,-0.8893,-0.8097,-0.8099,-0.81,-0.8101,-0.8102,-1.8008,-1.7551,-1.6797,-1.6057,-1.5502,-1.4893,-1.4381,-1.3827,-1.3145,-1.2241,-1.192,-1.1077,-1.0296,-0.9084,-0.8579,-0.7893,-0.7867,-0.7692,-0.7643,-0.7605,-0.7614,-0.8457,-0.7731,-0.7731,-0.773,-0.773,-0.7729,0,-1.7507,-1.7002,-1.633,-1.5427,-1.4839,-1.4633,-1.3887,-1.3402,-1.2673,-1.1983,-1.1312,-1.0363,-0.9558,-0.882,-0.7973,-0.7564,-0.7403,-0.736,-0.7375,-0.726,-0.7694,-0.788,-0.7503,-0.7503,-0.7504,-0.7504,-0.7504,-0.7504,-1.7178,-1.6387,-1.6025,-1.4943,-1.4431,-1.3619,-1.3209,-1.2635,-1.208,-1.1049,-1.0385,-0.9916,-0.9193,-0.8291,-0.7534,-0.7334,-0.7032,-0.7023,-0.6786,-0.7202,-0.7232,-0.7261,-0.7432,-0.6967,-0.6966,-0.6404,-0.64,-0.6396]}]]